Portada
METAR-TAF:

Aeropuertos :

Chichén Itzá, México

Aeropuerto Internacional de Kaua

latitud: 20-38-30N, longitud: 088-26-58W, altitud: 31 m

Observación

El informe se hizo hace 8 horas y 59 minutos, a las 20:45 UTC
Viento 6 kt del este
Temperatura 34°C
Humedad 50%
Presión 1015 hPa
Visibilidad: 12.9 km
Cielo nuboso a una altura de 1500 ft, Cumulonimbus.

METAR: MMCT 262045Z 09006KT 8SM BKN015CB 34/22 A2997 RMK 8/300 MSGTX MMMD

Hora: 00:44 (05:44 UTC)


TAF: falta

METAR-TAF

Observaciones y pronósticos meteorológicos de más de 4000 aeropuertos (mensajes METAR y TAF).

Los puntos amarillos y rojos representan las estaciones disponibles.

Ponga el ratón en el punto deseado para ver el nombre de la estación.

Haga clic para ver las observaciones y los pronósticos meteorológicos.

Para cambiar el mapa : haga clic en los botones verdes con una cruz de color negro para hacer un zoom, en el botón verde con un guión para alejar o en las flechas verdes para mapas adyacentes.


METAR-TAF: